Weather History for Jefferson, NC

Change the Weather History Date:

Monday, March 24, 2014

  Actual Average Record
Temperature  
Mean Temperature 34 °F -  
Max Temperature 46 °F 54 °F 73 °F (2007)
Min Temperature 23 °F 31 °F 16 °F (1971)
Degree Days  
Heating Degree Days 30    
Moisture  
Dew Point 10 °F    
Average Humidity 41    
Maximum Humidity 63    
Minimum Humidity 16    
Precipitation  
Precipitation 0.00 in - - ()
Sea Level Pressure  
Sea Level Pressure 30.07 in    
Wind  
Wind Speed 6 mph (WNW)    
Max Wind Speed 13 mph    
Max Gust Speed 20 mph    
Visibility 10 miles    
Events      
Averages and records for this station are not official NWS values.
T = Trace of Precipitation, MM = Missing Value Source: NWS Daily Summary

Daily Weather History Graph

Daily Weather History Graph

Search for Another Location

Airport:

Trip Planner

Search our weather history database for the weather conditions in past years. The results will help you decide how hot, cold, wet, or windy it might be!

Date:

Astronomy

Mar. 24, 2014 Rise Set
Actual Time 7:23 AM EDT 7:40 PM EDT
Civil Twilight 6:57 AM EDT 8:06 PM EDT
Nautical Twilight 6:27 AM EDT 8:36 PM EDT
Astronomical Twilight 5:56 AM EDT 9:07 PM EDT
Moon 2:43 AM EDT (3/24) 1:14 PM EDT (3/24)
Length of Visible Light 13h 09m
Length of Day
12h 17m
Last Quarter, 43% of the Moon is Illuminated
Mar 24
Last Quarter
Mar 30
New
Apr 7
First Quarter
Apr 15
Full
Apr 22
Last Quarter

Hourly Weather History & Observations

Time (EDT) Temp. Windchill Dew Point Humidity Pressure Visibility Wind Dir Wind Speed Gust Speed Precip Events Conditions
12:15 AM 30.9 °F 22.8 °F 15.6 °F 53% 30.08 in 10.0 mi NW 9.2 mph 19.6 mph N/A   Clear
12:35 AM 30.4 °F 22.9 °F 15.6 °F 54% 30.08 in 10.0 mi NW 8.1 mph 17.3 mph N/A   Clear
12:55 AM 29.8 °F 22.2 °F 16.5 °F 58% 30.09 in 10.0 mi NW 8.1 mph - N/A   Clear
1:15 AM 29.3 °F 22.3 °F 17.2 °F 61% 30.09 in 10.0 mi NNW 6.9 mph 17.3 mph N/A   Clear
1:35 AM 28.9 °F 21.1 °F 17.6 °F 63% 30.09 in 10.0 mi NNW 8.1 mph - N/A   Clear
1:55 AM 28.4 °F 19.1 °F 16.7 °F 62% 30.09 in 10.0 mi NNW 10.4 mph 17.3 mph N/A   Clear
2:15 AM 28.0 °F 21.7 °F 16.2 °F 61% 30.09 in 10.0 mi NNW 5.8 mph - N/A   Clear
2:35 AM 27.9 °F 21.5 °F 15.6 °F 60% 30.10 in 10.0 mi NNW 5.8 mph - N/A   Clear
2:55 AM 27.5 °F 23.6 °F 14.7 °F 59% 30.10 in 10.0 mi NNW 3.5 mph - N/A   Scattered Clouds
3:15 AM 27.3 °F 19.9 °F 14.0 °F 57% 30.09 in 10.0 mi WNW 6.9 mph - N/A   Scattered Clouds
3:35 AM 26.6 °F 16.8 °F 14.5 °F 60% 30.09 in 10.0 mi NW 10.4 mph 17.3 mph N/A   Clear
3:55 AM 26.4 °F 15.5 °F 14.2 °F 60% 30.08 in 10.0 mi NNW 12.7 mph 17.3 mph N/A   Clear
4:15 AM 25.7 °F 16.4 °F 13.6 °F 60% 30.09 in 10.0 mi NNW 9.2 mph - N/A   Clear
4:35 AM 25.7 °F - 13.1 °F 59% 30.09 in 10.0 mi Calm Calm - N/A   Clear
4:55 AM 25.5 °F - 12.7 °F 58% 30.09 in 10.0 mi Calm Calm - N/A   Clear
5:15 AM 25.3 °F 21.1 °F 11.8 °F 57% 30.09 in 10.0 mi West 3.5 mph - N/A   Clear
5:35 AM 25.5 °F - 11.1 °F 54% 30.10 in 10.0 mi Calm Calm - N/A   Clear
5:55 AM 25.3 °F - 10.6 °F 54% 30.10 in 10.0 mi Calm Calm - N/A   Clear
6:15 AM 25.0 °F 20.7 °F 10.4 °F 54% 30.11 in 10.0 mi West 3.5 mph - N/A   Clear
6:35 AM 24.4 °F 18.6 °F 10.6 °F 56% 30.11 in 10.0 mi West 4.6 mph - N/A   Clear
6:55 AM 24.1 °F 16.0 °F 9.5 °F 54% 30.12 in 10.0 mi WNW 6.9 mph - N/A   Clear
7:15 AM 23.9 °F 19.5 °F 9.3 °F 54% 30.12 in 10.0 mi West 3.5 mph - N/A   Clear
7:35 AM 23.5 °F 16.4 °F 9.1 °F 54% 30.12 in 10.0 mi West 5.8 mph - N/A   Clear
7:55 AM 23.7 °F 16.6 °F 9.1 °F 54% 30.13 in 10.0 mi WNW 5.8 mph - N/A   Clear
8:15 AM 24.3 °F 16.3 °F 8.4 °F 51% 30.13 in 10.0 mi West 6.9 mph - N/A   Clear
8:35 AM 24.8 °F 19.1 °F 7.7 °F 48% 30.14 in 10.0 mi WNW 4.6 mph - N/A   Clear
8:55 AM 25.7 °F 20.1 °F 7.7 °F 47% 30.14 in 10.0 mi NNW 4.6 mph - N/A   Clear
9:15 AM 25.7 °F 21.5 °F 6.1 °F 43% 30.14 in 10.0 mi WNW 3.5 mph - N/A   Clear
9:35 AM 26.4 °F 18.9 °F 6.6 °F 43% 30.15 in 10.0 mi NW 6.9 mph - N/A   Clear
9:55 AM 27.5 °F 19.3 °F 4.6 °F 38% 30.14 in 10.0 mi NW 8.1 mph - N/A   Clear
10:15 AM 28.4 °F 19.1 °F 4.3 °F 36% 30.14 in 10.0 mi NNW 10.4 mph - N/A   Clear
10:35 AM 29.3 °F 22.3 °F 3.7 °F 34% 30.14 in 10.0 mi NNW 6.9 mph - N/A   Clear
10:55 AM 30.6 °F 24.7 °F 5.4 °F 34% 30.14 in 10.0 mi WNW 5.8 mph - N/A   Clear
11:15 AM 31.6 °F - 5.5 °F 33% 30.13 in 10.0 mi Calm Calm - N/A   Clear
11:35 AM 32.4 °F 29.1 °F 5.7 °F 33% 30.13 in 10.0 mi West 3.5 mph - N/A   Clear
11:55 AM 33.8 °F - 8.1 °F 34% 30.12 in 10.0 mi Calm Calm - N/A   Clear
12:15 PM 34.2 °F 29.0 °F 0.1 °F 24% 30.11 in 10.0 mi WSW 5.8 mph - N/A   Clear
12:35 PM 36.1 °F 30.6 °F -3.1 °F 19% 30.11 in 10.0 mi WNW 6.9 mph - N/A   Clear
12:55 PM 37.8 °F 31.8 °F -1.5 °F 19% 30.11 in 10.0 mi WSW 8.1 mph - N/A   Clear
1:15 PM 38.1 °F 32.3 °F -2.4 °F 18% 30.11 in 10.0 mi West 8.1 mph - N/A   Clear
1:35 PM 39.2 °F 34.2 °F 0.5 °F 20% 30.09 in 10.0 mi West 6.9 mph - N/A   Clear
1:55 PM 39.9 °F 35.1 °F -0.0 °F 19% 30.09 in 10.0 mi WNW 6.9 mph - N/A   Clear
2:15 PM 39.9 °F 35.1 °F 0.9 °F 19% 30.08 in 10.0 mi West 6.9 mph - N/A   Clear
2:35 PM 41.7 °F 35.2 °F 0.7 °F 18% 30.06 in 10.0 mi West 11.5 mph 16.1 mph N/A   Clear
2:55 PM 41.9 °F 35.9 °F 1.6 °F 19% 30.05 in 10.0 mi West 10.4 mph 17.3 mph N/A   Clear
3:15 PM 42.6 °F - 2.7 °F 19% 30.03 in 10.0 mi Calm Calm - N/A   Clear
3:35 PM 43.5 °F - 2.8 °F 19% 30.02 in 10.0 mi Calm Calm - N/A   Clear
3:55 PM 44.6 °F 39.7 °F 3.2 °F 18% 30.02 in 10.0 mi West 9.2 mph 17.3 mph N/A   Clear
4:15 PM 45.1 °F 41.4 °F 3.4 °F 18% 30.02 in 10.0 mi WNW 6.9 mph - N/A   Clear
4:35 PM 45.9 °F 43.6 °F 2.8 °F 17% 30.01 in 10.0 mi West 4.6 mph - N/A   Clear
4:55 PM 45.9 °F 40.0 °F 1.8 °F 16% 30.00 in 10.0 mi West 12.7 mph - N/A   Clear
5:15 PM 45.7 °F 41.0 °F 1.8 °F 16% 30.00 in 10.0 mi WNW 9.2 mph - N/A   Clear
5:35 PM 45.7 °F 42.7 °F 2.5 °F 17% 29.99 in 10.0 mi WSW 5.8 mph - N/A   Clear
5:55 PM 46.8 °F - 3.9 °F 17% 29.99 in 10.0 mi WSW 6.9 mph - N/A   Clear
6:15 PM 46.2 °F 42.7 °F 2.1 °F 16% 29.98 in 10.0 mi West 6.9 mph - N/A   Clear
6:35 PM 43.9 °F 41.3 °F 12.6 °F 28% 29.99 in 10.0 mi South 4.6 mph - N/A   Clear
6:55 PM 41.5 °F 38.6 °F 15.3 °F 35% 29.99 in 10.0 mi SSE 4.6 mph - N/A   Clear
7:15 PM 40.1 °F 36.1 °F 16.3 °F 38% 29.99 in 10.0 mi SSE 5.8 mph - N/A   Clear
7:35 PM 39.0 °F - 16.9 °F 41% 30.00 in 10.0 mi Calm Calm - N/A   Clear
7:55 PM 38.3 °F 35.9 °F 16.5 °F 41% 30.00 in 10.0 mi SE 3.5 mph - N/A   Clear
8:15 PM 37.4 °F - 16.7 °F 43% 30.00 in 10.0 mi Calm Calm - N/A   Clear
8:35 PM 37.4 °F - 16.7 °F 43% 30.01 in 10.0 mi Calm Calm - N/A   Clear
8:55 PM 37.0 °F - 16.7 °F 44% 30.01 in 10.0 mi Calm Calm - N/A   Clear
9:15 PM 36.7 °F - 16.7 °F 44% 30.01 in 10.0 mi Calm Calm - N/A   Clear
9:35 PM 36.5 °F - 16.7 °F 45% 30.02 in 10.0 mi Calm Calm - N/A   Clear
9:55 PM 36.1 °F - 16.7 °F 45% 30.01 in 10.0 mi Calm Calm - N/A   Clear
10:15 PM 36.0 °F - 16.7 °F 46% 30.01 in 10.0 mi Calm Calm - N/A   Clear
10:35 PM 34.3 °F - 17.6 °F 50% 30.01 in 10.0 mi Calm Calm - N/A   Clear
10:55 PM 33.1 °F - 18.5 °F 55% 30.00 in 10.0 mi Calm Calm - N/A   Scattered Clouds
11:15 PM 33.8 °F - 18.1 °F 53% 29.99 in 10.0 mi Calm Calm - N/A   Scattered Clouds
11:35 PM 33.1 °F - 18.1 °F 54% 29.98 in 10.0 mi Calm Calm - N/A   Clear
11:55 PM 33.1 °F - 18.0 °F 54% 29.98 in 10.0 mi Calm Calm - N/A   Clear